status,avgMeasuredTime,avgSpeed,extID,medianMeasuredTime,TIMESTAMP,vehicleCount,_id,REPORT_ID
OK,413,7,708,413,2014-08-01T07:50:00,0,20746260,187483
OK,413,7,708,413,2014-08-01T07:55:00,0,20746432,187483
OK,545,5,708,545,2014-08-01T08:00:00,1,20746763,187483
OK,545,5,708,545,2014-08-01T08:05:00,1,20747212,187483
OK,552,5,708,552,2014-08-01T08:10:00,1,20747585,187483
OK,552,5,708,552,2014-08-01T08:15:00,1,20748034,187483
OK,223,13,708,223,2014-08-01T08:20:00,2,20748483,187483
OK,223,13,708,223,2014-08-01T08:25:00,3,20748932,187483
OK,127,24,708,127,2014-08-01T08:30:00,2,20749381,187483
OK,129,23,708,129,2014-08-01T08:35:00,4,20749830,187483
OK,134,23,708,134,2014-08-01T08:40:00,0,20750279,187483
OK,134,23,708,134,2014-08-01T08:45:00,0,20750728,187483
OK,134,23,708,134,2014-08-01T08:50:00,0,20751177,187483
OK,134,23,708,134,2014-08-01T08:55:00,0,20751626,187483
OK,134,23,708,134,2014-08-01T09:00:00,0,20752075,187483
OK,134,23,708,134,2014-08-01T09:05:00,0,20752524,187483
OK,134,23,708,134,2014-08-01T09:10:00,0,20752973,187483
OK,134,23,708,134,2014-08-01T09:15:00,0,20753422,187483
OK,194,15,708,194,2014-08-01T09:20:00,2,20753871,187483
OK,194,15,708,194,2014-08-01T09:25:00,2,20754320,187483
OK,194,15,708,194,2014-08-01T09:30:00,0,20754769,187483
OK,194,15,708,194,2014-08-01T09:35:00,0,20755218,187483
OK,194,15,708,194,2014-08-01T09:40:00,0,20755667,187483
OK,194,15,708,194,2014-08-01T09:45:00,0,20756116,187483
OK,194,15,708,194,2014-08-01T09:50:00,0,20756565,187483
OK,141,21,708,141,2014-08-01T09:55:00,1,20757014,187483
OK,175,17,708,175,2014-08-01T10:00:00,2,20757463,187483
OK,209,14,708,209,2014-08-01T10:05:00,1,20757912,187483
OK,209,14,708,209,2014-08-01T10:10:00,0,20758361,187483
OK,209,14,708,209,2014-08-01T10:15:00,0,20758810,187483
OK,209,14,708,209,2014-08-01T10:20:00,0,20759259,187483
OK,195,15,708,195,2014-08-01T10:25:00,1,20759708,187483
OK,195,15,708,195,2014-08-01T10:30:00,1,20760157,187483
OK,195,15,708,195,2014-08-01T10:35:00,0,20760606,187483
OK,160,19,708,160,2014-08-01T10:40:00,1,20761055,187483
OK,160,19,708,160,2014-08-01T10:45:00,0,20761504,187483
OK,160,19,708,160,2014-08-01T10:50:00,0,20761953,187483
OK,160,19,708,160,2014-08-01T10:55:00,0,20762402,187483
OK,160,19,708,160,2014-08-01T11:00:00,0,20762851,187483
OK,130,23,708,130,2014-08-01T11:05:00,1,20763300,187483
OK,130,23,708,130,2014-08-01T11:10:00,1,20763749,187483
OK,130,23,708,130,2014-08-01T11:15:00,0,20764198,187483
OK,130,23,708,130,2014-08-01T11:20:00,0,20764646,187483
OK,130,23,708,130,2014-08-01T11:25:00,0,20765095,187483
OK,130,23,708,130,2014-08-01T11:30:00,0,20765544,187483
OK,127,24,708,127,2014-08-01T11:35:00,1,20765993,187483
OK,127,24,708,127,2014-08-01T11:40:00,1,20766442,187483
OK,127,24,708,127,2014-08-01T11:45:00,0,20766891,187483
OK,127,24,708,127,2014-08-01T11:50:00,0,20767340,187483
OK,127,24,708,127,2014-08-01T11:55:00,0,20767789,187483
OK,127,24,708,127,2014-08-01T12:00:00,0,20768238,187483
OK,127,24,708,127,2014-08-01T12:05:00,0,20768687,187483
OK,127,24,708,127,2014-08-01T12:10:00,0,20769136,187483
OK,127,24,708,127,2014-08-01T12:15:00,0,20769585,187483
OK,127,24,708,127,2014-08-01T12:20:00,0,20770034,187483
OK,127,24,708,127,2014-08-01T12:25:00,0,20770483,187483
OK,127,24,708,127,2014-08-01T12:30:00,0,20770932,187483
OK,248,12,708,248,2014-08-01T12:35:00,1,20771381,187483
OK,248,12,708,248,2014-08-01T12:40:00,1,20771830,187483
OK,248,12,708,248,2014-08-01T12:45:00,0,20772279,187483
OK,248,12,708,248,2014-08-01T12:50:00,0,20772728,187483
OK,248,12,708,248,2014-08-01T12:55:00,0,20773177,187483
OK,153,20,708,153,2014-08-01T13:00:00,1,20773626,187483
OK,153,20,708,153,2014-08-01T13:05:00,1,20774075,187483
OK,153,20,708,153,2014-08-01T13:10:00,0,20774524,187483
OK,153,20,708,153,2014-08-01T13:15:00,0,20774973,187483
OK,326,9,708,326,2014-08-01T13:20:00,1,20775422,187483
OK,153,20,708,153,2014-08-01T13:25:00,0,20775871,187483
OK,225,13,708,225,2014-08-01T13:30:00,1,20776320,187483
OK,225,13,708,225,2014-08-01T13:35:00,0,20776769,187483
OK,225,13,708,225,2014-08-01T13:40:00,0,20777218,187483
OK,225,13,708,225,2014-08-01T13:45:00,0,20777667,187483
OK,225,13,708,225,2014-08-01T13:50:00,0,20778116,187483
OK,225,13,708,225,2014-08-01T13:55:00,0,20778565,187483
OK,225,13,708,225,2014-08-01T14:00:00,0,20779014,187483
OK,127,24,708,127,2014-08-01T14:05:00,1,20779463,187483
OK,127,24,708,127,2014-08-01T14:10:00,1,20779912,187483
OK,128,24,708,128,2014-08-01T14:15:00,1,20780361,187483
OK,128,24,708,128,2014-08-01T14:20:00,0,20780810,187483
OK,128,24,708,128,2014-08-01T14:25:00,0,20781259,187483
OK,128,24,708,128,2014-08-01T14:30:00,0,20781708,187483
OK,128,24,708,128,2014-08-01T14:35:00,0,20782157,187483
OK,128,24,708,128,2014-08-01T14:40:00,0,20782606,187483
OK,128,24,708,128,2014-08-01T14:45:00,0,20783055,187483
OK,128,24,708,128,2014-08-01T14:50:00,0,20783504,187483
OK,128,24,708,128,2014-08-01T14:55:00,0,20783953,187483
OK,128,24,708,128,2014-08-01T15:00:00,0,20784402,187483
OK,128,24,708,128,2014-08-01T15:05:00,0,20784851,187483
OK,128,24,708,128,2014-08-01T15:10:00,0,20785300,187483
OK,128,24,708,128,2014-08-01T15:15:00,0,20785749,187483
OK,128,24,708,128,2014-08-01T15:20:00,0,20786198,187483
OK,208,14,708,208,2014-08-01T15:25:00,1,20786647,187483
OK,208,14,708,208,2014-08-01T15:30:00,1,20787096,187483
OK,208,14,708,208,2014-08-01T15:35:00,0,20787545,187483
OK,208,14,708,208,2014-08-01T15:40:00,0,20787994,187483
OK,208,14,708,208,2014-08-01T15:45:00,0,20788443,187483
OK,208,14,708,208,2014-08-01T15:50:00,0,20788892,187483
OK,208,14,708,208,2014-08-01T15:55:00,0,20789341,187483
OK,208,14,708,208,2014-08-01T16:00:00,0,20789790,187483
OK,208,14,708,208,2014-08-01T16:05:00,0,20790239,187483
OK,108,28,708,108,2014-08-01T16:10:00,1,20790688,187483
OK,108,28,708,108,2014-08-01T16:15:00,1,20791137,187483
OK,108,28,708,108,2014-08-01T16:20:00,0,20791586,187483
OK,108,28,708,108,2014-08-01T16:25:00,0,20792035,187483
OK,105,29,708,105,2014-08-01T16:30:00,1,20792484,187483
OK,103,29,708,103,2014-08-01T16:35:00,2,20792933,187483
OK,101,30,708,101,2014-08-01T16:40:00,1,20793382,187483
OK,101,30,708,101,2014-08-01T16:45:00,0,20793831,187483
OK,101,30,708,101,2014-08-01T16:50:00,0,20794280,187483
OK,101,30,708,101,2014-08-01T16:55:00,0,20794729,187483
OK,101,30,708,101,2014-08-01T17:00:00,0,20795178,187483
OK,101,30,708,101,2014-08-01T17:05:00,0,20795627,187483
OK,101,30,708,101,2014-08-01T17:10:00,0,20796076,187483
OK,145,21,708,145,2014-08-01T17:15:00,1,20796525,187483
OK,145,21,708,145,2014-08-01T17:20:00,1,20796974,187483
OK,145,21,708,145,2014-08-01T17:25:00,0,20797423,187483
OK,145,21,708,145,2014-08-01T17:30:00,0,20797872,187483
OK,145,21,708,145,2014-08-01T17:35:00,0,20798321,187483
OK,145,21,708,145,2014-08-01T17:40:00,0,20798770,187483
OK,145,21,708,145,2014-08-01T17:45:00,0,20799219,187483
OK,145,21,708,145,2014-08-01T17:50:00,0,20799668,187483
OK,145,21,708,145,2014-08-01T17:55:00,0,20800117,187483
OK,145,21,708,145,2014-08-01T18:00:00,0,20800566,187483
OK,145,21,708,145,2014-08-01T18:05:00,0,20801015,187483
OK,145,21,708,145,2014-08-01T18:10:00,0,20801464,187483
OK,145,21,708,145,2014-08-01T18:15:00,0,20801913,187483
OK,145,21,708,145,2014-08-01T18:20:00,0,20802362,187483
OK,145,21,708,145,2014-08-01T18:25:00,0,20802811,187483
OK,145,21,708,145,2014-08-01T18:30:00,0,20803260,187483
OK,145,21,708,145,2014-08-01T18:35:00,0,20803709,187483
OK,145,21,708,145,2014-08-01T18:40:00,0,20804158,187483
OK,145,21,708,145,2014-08-01T18:45:00,0,20804607,187483
OK,145,21,708,145,2014-08-01T18:50:00,0,20805056,187483
OK,145,21,708,145,2014-08-01T18:55:00,0,20805505,187483
OK,145,21,708,145,2014-08-01T19:00:00,0,20805954,187483
OK,76,40,708,76,2014-08-01T19:05:00,2,20806403,187483
OK,76,40,708,76,2014-08-01T19:10:00,0,20806852,187483
OK,76,40,708,76,2014-08-01T19:15:00,0,20807301,187483
OK,76,40,708,76,2014-08-01T19:20:00,0,20807750,187483
OK,76,40,708,76,2014-08-01T19:25:00,0,20808199,187483
OK,76,40,708,76,2014-08-01T19:30:00,0,20808648,187483
OK,76,40,708,76,2014-08-01T19:35:00,0,20809097,187483
OK,76,40,708,76,2014-08-01T19:40:00,0,20809546,187483
OK,76,40,708,76,2014-08-01T19:45:00,0,20809995,187483
OK,76,40,708,76,2014-08-01T19:50:00,0,20810444,187483
OK,76,40,708,76,2014-08-01T19:55:00,0,20810893,187483
OK,76,40,708,76,2014-08-01T20:00:00,0,20811338,187483
OK,76,40,708,76,2014-08-01T20:05:00,0,20811512,187483
OK,76,40,708,76,2014-08-01T20:10:00,0,20811715,187483
OK,76,40,708,76,2014-08-01T20:15:00,0,20811921,187483
OK,76,40,708,76,2014-08-01T20:20:00,0,20812130,187483
OK,76,40,708,76,2014-08-01T20:25:00,0,20812348,187483
OK,76,40,708,76,2014-08-01T20:30:00,0,20812563,187483
OK,76,40,708,76,2014-08-01T20:35:00,0,20812771,187483
OK,76,40,708,76,2014-08-01T20:40:00,0,20812973,187483
OK,76,40,708,76,2014-08-01T20:45:00,0,20813181,187483
OK,76,40,708,76,2014-08-01T20:50:00,0,20813392,187483
OK,76,40,708,76,2014-08-01T20:55:00,0,20813622,187483
OK,76,40,708,76,2014-08-01T21:00:00,0,20813860,187483
OK,76,40,708,76,2014-08-01T21:05:00,0,20814036,187483
OK,76,40,708,76,2014-08-01T21:10:00,0,20814276,187483
OK,76,40,708,76,2014-08-01T21:15:00,0,20814472,187483
OK,76,40,708,76,2014-08-01T21:20:00,0,20814679,187483
OK,76,40,708,76,2014-08-01T21:25:00,0,20814908,187483
OK,76,40,708,76,2014-08-01T21:30:00,0,20815184,187483
OK,76,40,708,76,2014-08-01T21:35:00,0,20815417,187483
OK,76,40,708,76,2014-08-01T21:40:00,0,20815641,187483
OK,76,40,708,76,2014-08-01T21:45:00,0,20815878,187483
OK,76,40,708,76,2014-08-01T21:50:00,0,20816119,187483
OK,76,40,708,76,2014-08-01T21:55:00,0,20816354,187483
OK,76,40,708,76,2014-08-01T22:00:00,0,20816622,187483
OK,76,40,708,76,2014-08-01T22:05:00,0,20817071,187483
OK,76,40,708,76,2014-08-01T22:10:00,0,20817393,187483
OK,76,40,708,76,2014-08-01T22:15:00,0,20817822,187483
OK,76,40,708,76,2014-08-01T22:20:00,0,20818112,187483
OK,76,40,708,76,2014-08-01T22:25:00,0,20818428,187483
OK,76,40,708,76,2014-08-01T22:30:00,0,20818762,187483
OK,76,40,708,76,2014-08-01T22:35:00,0,20819064,187483
OK,76,40,708,76,2014-08-01T22:40:00,0,20819246,187483
OK,76,40,708,76,2014-08-01T22:45:00,0,20819534,187483
OK,80,38,708,80,2014-08-01T22:50:00,1,20819769,187483
OK,80,38,708,80,2014-08-01T22:55:00,1,20820022,187483
OK,80,38,708,80,2014-08-01T23:00:00,0,20820198,187483
OK,80,38,708,80,2014-08-01T23:05:00,0,20820451,187483
OK,80,38,708,80,2014-08-01T23:10:00,0,20820681,187483
OK,80,38,708,80,2014-08-01T23:15:00,0,20820869,187483
OK,80,38,708,80,2014-08-01T23:20:00,0,20821119,187483
OK,80,38,708,80,2014-08-01T23:25:00,0,20821297,187483
OK,80,38,708,80,2014-08-01T23:30:00,0,20821523,187483
OK,80,38,708,80,2014-08-01T23:35:00,0,20821768,187483
OK,80,38,708,80,2014-08-01T23:40:00,0,20821947,187483
OK,80,38,708,80,2014-08-01T23:45:00,0,20822170,187483
OK,80,38,708,80,2014-08-01T23:50:00,0,20822437,187483
OK,80,38,708,80,2014-08-01T23:55:00,0,20822763,187483
OK,80,38,708,80,2014-08-02T00:00:00,0,20823061,187483
OK,80,38,708,80,2014-08-02T00:05:00,0,20823510,187483
OK,80,38,708,80,2014-08-02T00:10:00,0,20823959,187483
OK,80,38,708,80,2014-08-02T00:15:00,0,20824408,187483
OK,80,38,708,80,2014-08-02T00:20:00,0,20824857,187483
OK,80,38,708,80,2014-08-02T00:25:00,0,20825306,187483
OK,80,38,708,80,2014-08-02T00:30:00,0,20825755,187483
OK,80,38,708,80,2014-08-02T00:35:00,0,20826204,187483
OK,80,38,708,80,2014-08-02T00:40:00,0,20826653,187483
OK,80,38,708,80,2014-08-02T00:45:00,0,20827102,187483
OK,80,38,708,80,2014-08-02T00:50:00,0,20827551,187483
OK,80,38,708,80,2014-08-02T00:55:00,0,20828000,187483
OK,80,38,708,80,2014-08-02T01:00:00,0,20828449,187483
OK,80,38,708,80,2014-08-02T01:05:00,0,20828898,187483
OK,80,38,708,80,2014-08-02T01:10:00,0,20829347,187483
OK,80,38,708,80,2014-08-02T01:15:00,0,20829796,187483
OK,80,38,708,80,2014-08-02T01:20:00,0,20830245,187483
OK,80,38,708,80,2014-08-02T01:25:00,0,20830694,187483
OK,80,38,708,80,2014-08-02T01:30:00,0,20831143,187483
OK,79,39,708,79,2014-08-02T01:35:00,1,20831592,187483
OK,79,39,708,79,2014-08-02T01:40:00,1,20832041,187483
OK,79,39,708,79,2014-08-02T01:45:00,0,20832490,187483
OK,79,39,708,79,2014-08-02T01:50:00,0,20832939,187483
OK,79,39,708,79,2014-08-02T01:55:00,0,20833388,187483
OK,79,39,708,79,2014-08-02T02:00:00,0,20833837,187483
OK,187,16,708,187,2014-08-02T02:05:00,1,20834286,187483
OK,187,16,708,187,2014-08-02T02:10:00,0,20834735,187483
OK,187,16,708,187,2014-08-02T02:15:00,0,20835184,187483
OK,187,16,708,187,2014-08-02T02:20:00,0,20835633,187483
OK,187,16,708,187,2014-08-02T02:25:00,0,20836082,187483
OK,187,16,708,187,2014-08-02T02:30:00,0,20836531,187483
OK,187,16,708,187,2014-08-02T02:35:00,0,20836980,187483
OK,187,16,708,187,2014-08-02T02:40:00,0,20837429,187483
OK,187,16,708,187,2014-08-02T02:45:00,0,20837878,187483
OK,187,16,708,187,2014-08-02T02:50:00,0,20838327,187483
OK,187,16,708,187,2014-08-02T02:55:00,0,20838776,187483
OK,187,16,708,187,2014-08-02T03:00:00,0,20839225,187483
OK,187,16,708,187,2014-08-02T03:05:00,0,20839674,187483
OK,187,16,708,187,2014-08-02T03:10:00,0,20840123,187483
OK,187,16,708,187,2014-08-02T03:15:00,0,20840572,187483
OK,187,16,708,187,2014-08-02T03:20:00,0,20841021,187483
OK,187,16,708,187,2014-08-02T03:25:00,0,20841470,187483
OK,187,16,708,187,2014-08-02T03:30:00,0,20841919,187483
OK,187,16,708,187,2014-08-02T03:35:00,0,20842368,187483
OK,187,16,708,187,2014-08-02T03:40:00,0,20842817,187483
OK,187,16,708,187,2014-08-02T03:45:00,0,20843266,187483
OK,187,16,708,187,2014-08-02T03:50:00,0,20843715,187483
OK,187,16,708,187,2014-08-02T03:55:00,0,20844164,187483
OK,187,16,708,187,2014-08-02T04:00:00,0,20844613,187483
OK,187,16,708,187,2014-08-02T04:05:00,0,20844744,187483
OK,187,16,708,187,2014-08-02T04:10:00,0,20845074,187483
OK,187,16,708,187,2014-08-02T04:15:00,0,20845254,187483
OK,187,16,708,187,2014-08-02T04:20:00,0,20845610,187483
OK,187,16,708,187,2014-08-02T04:25:00,0,20845974,187483
OK,187,16,708,187,2014-08-02T04:30:00,0,20846166,187483
OK,187,16,708,187,2014-08-02T04:35:00,0,20846533,187483
OK,187,16,708,187,2014-08-02T04:40:00,0,20846916,187483
OK,99,31,708,99,2014-08-02T04:45:00,1,20847175,187483
OK,99,31,708,99,2014-08-02T04:50:00,0,20847541,187483
OK,99,31,708,99,2014-08-02T04:55:00,0,20847898,187483
OK,99,31,708,99,2014-08-02T05:00:00,0,20848258,187483
OK,99,31,708,99,2014-08-02T05:05:00,0,20848422,187483
OK,99,31,708,99,2014-08-02T05:10:00,0,20848776,187483
OK,99,31,708,99,2014-08-02T05:15:00,0,20848968,187483
OK,99,31,708,99,2014-08-02T05:20:00,0,20849312,187483
OK,99,31,708,99,2014-08-02T05:30:00,0,20849837,187483
OK,99,31,708,99,2014-08-02T05:35:00,0,20850109,187483
OK,99,31,708,99,2014-08-02T05:40:00,0,20850402,187483
OK,99,31,708,99,2014-08-02T05:45:00,0,20850703,187483
OK,99,31,708,99,2014-08-02T05:50:00,0,20851061,187483
OK,99,31,708,99,2014-08-02T05:55:00,0,20851315,187483
OK,99,31,708,99,2014-08-02T06:00:00,0,20851618,187483
OK,99,31,708,99,2014-08-02T06:05:00,0,20852067,187483
OK,99,31,708,99,2014-08-02T06:10:00,0,20852516,187483
OK,99,31,708,99,2014-08-02T06:15:00,0,20852965,187483
OK,99,31,708,99,2014-08-02T06:20:00,0,20853414,187483
OK,99,31,708,99,2014-08-02T06:25:00,0,20853863,187483
OK,99,31,708,99,2014-08-02T06:30:00,0,20854312,187483
OK,99,31,708,99,2014-08-02T06:35:00,0,20854761,187483
OK,99,31,708,99,2014-08-02T06:40:00,0,20855210,187483
OK,99,31,708,99,2014-08-02T06:45:00,0,20855659,187483
OK,99,31,708,99,2014-08-02T06:50:00,0,20856108,187483
OK,99,31,708,99,2014-08-02T06:55:00,0,20856557,187483
OK,99,31,708,99,2014-08-02T07:00:00,0,20857006,187483
OK,99,31,708,99,2014-08-02T07:05:00,0,20857455,187483
OK,99,31,708,99,2014-08-02T07:10:00,0,20857904,187483
OK,99,31,708,99,2014-08-02T07:15:00,0,20858353,187483
OK,99,31,708,99,2014-08-02T07:20:00,0,20858802,187483
OK,99,31,708,99,2014-08-02T07:25:00,0,20859251,187483
OK,85,36,708,85,2014-08-02T07:30:00,1,20859700,187483
OK,85,36,708,85,2014-08-02T07:35:00,1,20860149,187483
OK,85,36,708,85,2014-08-02T07:40:00,0,20860598,187483
OK,79,39,708,79,2014-08-02T07:45:00,1,20861047,187483
OK,79,39,708,79,2014-08-02T07:50:00,1,20861496,187483
OK,170,18,708,170,2014-08-02T07:55:00,1,20861945,187483
OK,170,18,708,170,2014-08-02T08:00:00,1,20862394,187483
OK,170,18,708,170,2014-08-02T08:05:00,0,20862843,187483
OK,170,18,708,170,2014-08-02T08:10:00,0,20863292,187483
OK,170,18,708,170,2014-08-02T08:15:00,0,20863741,187483
OK,170,18,708,170,2014-08-02T08:20:00,0,20864190,187483
OK,170,18,708,170,2014-08-02T08:25:00,0,20864639,187483
OK,170,18,708,170,2014-08-02T08:30:00,0,20865088,187483
OK,170,18,708,170,2014-08-02T08:35:00,0,20865537,187483
OK,170,18,708,170,2014-08-02T08:40:00,0,20865986,187483
OK,170,18,708,170,2014-08-02T08:45:00,0,20866435,187483
OK,170,18,708,170,2014-08-02T08:50:00,0,20866884,187483
OK,170,18,708,170,2014-08-02T08:55:00,0,20867333,187483
OK,170,18,708,170,2014-08-02T09:00:00,0,20867782,187483
OK,170,18,708,170,2014-08-02T09:05:00,0,20868231,187483
OK,170,18,708,170,2014-08-02T09:10:00,0,20868680,187483
OK,170,18,708,170,2014-08-02T09:15:00,0,20869129,187483
OK,170,18,708,170,2014-08-02T09:20:00,0,20869578,187483
OK,170,18,708,170,2014-08-02T09:25:00,0,20870027,187483
OK,170,18,708,170,2014-08-02T09:30:00,0,20870476,187483
OK,170,18,708,170,2014-08-02T09:35:00,0,20870925,187483
OK,170,18,708,170,2014-08-02T09:40:00,0,20871374,187483
OK,170,18,708,170,2014-08-02T09:45:00,0,20871823,187483
OK,170,18,708,170,2014-08-02T09:50:00,0,20872272,187483
OK,170,18,708,170,2014-08-02T09:55:00,0,20872721,187483
OK,170,18,708,170,2014-08-02T10:00:00,0,20873170,187483
OK,170,18,708,170,2014-08-02T10:05:00,0,20873619,187483
OK,168,18,708,168,2014-08-02T10:10:00,1,20874068,187483
OK,168,18,708,168,2014-08-02T10:15:00,1,20874517,187483
OK,186,16,708,186,2014-08-02T10:20:00,1,20874966,187483
OK,186,16,708,186,2014-08-02T10:25:00,0,20875415,187483
OK,186,16,708,186,2014-08-02T10:30:00,0,20875864,187483
OK,186,16,708,186,2014-08-02T10:35:00,0,20876313,187483
OK,186,16,708,186,2014-08-02T10:40:00,0,20876762,187483
OK,186,16,708,186,2014-08-02T10:45:00,0,20877211,187483
OK,186,16,708,186,2014-08-02T10:50:00,0,20877660,187483
OK,186,16,708,186,2014-08-02T10:55:00,0,20878109,187483
OK,186,16,708,186,2014-08-02T11:00:00,0,20878558,187483
OK,186,16,708,186,2014-08-02T11:05:00,0,20879007,187483
OK,186,16,708,186,2014-08-02T11:10:00,0,20879456,187483
OK,186,16,708,186,2014-08-02T11:15:00,0,20879905,187483
OK,153,20,708,153,2014-08-02T11:20:00,1,20880354,187483
OK,153,20,708,153,2014-08-02T11:25:00,1,20880803,187483
OK,153,20,708,153,2014-08-02T11:30:00,0,20881252,187483
OK,153,20,708,153,2014-08-02T11:35:00,0,20881701,187483
OK,153,20,708,153,2014-08-02T11:40:00,0,20882150,187483
OK,153,20,708,153,2014-08-02T11:45:00,0,20882599,187483
OK,153,20,708,153,2014-08-02T11:50:00,0,20883048,187483
OK,153,20,708,153,2014-08-02T11:55:00,0,20883497,187483
OK,153,20,708,153,2014-08-02T12:00:00,0,20883946,187483
OK,153,20,708,153,2014-08-02T12:05:00,0,20884395,187483
OK,153,20,708,153,2014-08-02T12:10:00,0,20884844,187483
OK,153,20,708,153,2014-08-02T12:15:00,0,20885293,187483
OK,153,20,708,153,2014-08-02T12:20:00,0,20885742,187483
OK,153,20,708,153,2014-08-02T12:25:00,0,20886191,187483
OK,153,20,708,153,2014-08-02T12:30:00,0,20886640,187483
OK,153,20,708,153,2014-08-02T12:35:00,0,20887089,187483
OK,153,20,708,153,2014-08-02T12:40:00,0,20887538,187483
OK,153,20,708,153,2014-08-02T12:45:00,0,20887987,187483
OK,153,20,708,153,2014-08-02T12:50:00,0,20888436,187483
OK,153,20,708,153,2014-08-02T12:55:00,0,20888885,187483
OK,153,20,708,153,2014-08-02T13:00:00,0,20889334,187483
OK,153,20,708,153,2014-08-02T13:05:00,0,20889783,187483
OK,153,20,708,153,2014-08-02T13:10:00,0,20890232,187483
OK,153,20,708,153,2014-08-02T13:15:00,0,20890681,187483
OK,156,19,708,156,2014-08-02T13:20:00,1,20891130,187483
OK,156,19,708,156,2014-08-02T13:25:00,1,20891579,187483
OK,156,19,708,156,2014-08-02T13:30:00,0,20892028,187483
OK,156,19,708,156,2014-08-02T13:35:00,0,20892477,187483
OK,156,19,708,156,2014-08-02T13:40:00,0,20892926,187483
OK,156,19,708,156,2014-08-02T13:45:00,0,20893375,187483
OK,156,19,708,156,2014-08-02T13:50:00,0,20893824,187483
OK,199,15,708,199,2014-08-02T13:55:00,1,20894273,187483
OK,199,15,708,199,2014-08-02T14:00:00,0,20894722,187483
OK,199,15,708,199,2014-08-02T14:05:00,0,20895171,187483
OK,199,15,708,199,2014-08-02T14:10:00,0,20895620,187483
OK,199,15,708,199,2014-08-02T14:15:00,0,20896069,187483
OK,199,15,708,199,2014-08-02T14:20:00,0,20896518,187483
OK,199,15,708,199,2014-08-02T14:25:00,0,20896967,187483
OK,199,15,708,199,2014-08-02T14:30:00,0,20897416,187483
OK,199,15,708,199,2014-08-02T14:35:00,0,20897865,187483
OK,199,15,708,199,2014-08-02T14:40:00,0,20898314,187483
OK,199,15,708,199,2014-08-02T14:45:00,0,20898763,187483
OK,199,15,708,199,2014-08-02T14:50:00,0,20899212,187483
OK,199,15,708,199,2014-08-02T14:55:00,0,20899661,187483
OK,199,15,708,199,2014-08-02T15:00:00,0,20900110,187483
OK,199,15,708,199,2014-08-02T15:05:00,0,20900559,187483
OK,199,15,708,199,2014-08-02T15:10:00,0,20901008,187483
OK,199,15,708,199,2014-08-02T15:15:00,0,20901457,187483
OK,199,15,708,199,2014-08-02T15:20:00,0,20901906,187483
OK,199,15,708,199,2014-08-02T15:25:00,0,20902355,187483
OK,199,15,708,199,2014-08-02T15:30:00,0,20902804,187483
OK,199,15,708,199,2014-08-02T15:35:00,0,20903253,187483
OK,199,15,708,199,2014-08-02T15:40:00,0,20903702,187483
OK,199,15,708,199,2014-08-02T15:45:00,0,20904151,187483
OK,199,15,708,199,2014-08-02T15:50:00,0,20904600,187483
OK,112,27,708,112,2014-08-02T15:55:00,1,20905049,187483
OK,112,27,708,112,2014-08-02T16:00:00,0,20905498,187483
OK,112,27,708,112,2014-08-02T16:05:00,0,20905947,187483
OK,112,27,708,112,2014-08-02T16:10:00,0,20906396,187483
OK,112,27,708,112,2014-08-02T16:15:00,0,20906845,187483
OK,112,27,708,112,2014-08-02T16:20:00,0,20907294,187483
OK,112,27,708,112,2014-08-02T16:25:00,0,20907743,187483
OK,112,27,708,112,2014-08-02T16:30:00,0,20908192,187483
OK,89,34,708,89,2014-08-02T16:35:00,1,20908641,187483
OK,89,34,708,89,2014-08-02T16:40:00,1,20909090,187483
OK,89,34,708,89,2014-08-02T16:45:00,0,20909539,187483
OK,89,34,708,89,2014-08-02T16:50:00,0,20909988,187483
OK,89,34,708,89,2014-08-02T16:55:00,0,20910437,187483
OK,89,34,708,89,2014-08-02T17:00:00,0,20910886,187483
OK,89,34,708,89,2014-08-02T17:05:00,0,20911335,187483
OK,89,34,708,89,2014-08-02T17:10:00,0,20911784,187483
OK,89,34,708,89,2014-08-02T17:15:00,0,20912233,187483
OK,193,16,708,193,2014-08-02T17:20:00,1,20912682,187483
OK,193,16,708,193,2014-08-02T17:25:00,1,20913131,187483
OK,193,16,708,193,2014-08-02T17:30:00,0,20913580,187483
OK,193,16,708,193,2014-08-02T17:35:00,0,20914029,187483
OK,193,16,708,193,2014-08-02T17:40:00,0,20914478,187483
OK,193,16,708,193,2014-08-02T17:45:00,0,20914927,187483
OK,146,21,708,146,2014-08-02T17:50:00,1,20915376,187483
OK,146,21,708,146,2014-08-02T17:55:00,0,20915825,187483
OK,146,21,708,146,2014-08-02T18:00:00,0,20916274,187483
OK,146,21,708,146,2014-08-02T18:05:00,0,20916723,187483
OK,146,21,708,146,2014-08-02T18:10:00,0,20917172,187483
OK,146,21,708,146,2014-08-02T18:15:00,0,20917621,187483
OK,78,39,708,78,2014-08-02T18:20:00,1,20918070,187483
OK,78,39,708,78,2014-08-02T18:25:00,1,20918519,187483
OK,78,39,708,78,2014-08-02T18:30:00,0,20918968,187483
OK,78,39,708,78,2014-08-02T18:35:00,0,20919417,187483
OK,78,39,708,78,2014-08-02T18:40:00,0,20919866,187483
OK,78,39,708,78,2014-08-02T18:45:00,0,20920315,187483
OK,78,39,708,78,2014-08-02T18:50:00,0,20920764,187483
OK,78,39,708,78,2014-08-02T18:55:00,0,20921213,187483
OK,78,39,708,78,2014-08-02T19:00:00,0,20921662,187483
OK,78,39,708,78,2014-08-02T19:05:00,0,20922111,187483
OK,78,39,708,78,2014-08-02T19:10:00,0,20922560,187483